Zurück zum Katalog

STARLINK-5179

AktivKommunikationVLEO
NORAD 54102·PAYLOAD·🇺🇸 United States

Gestartet Oct 20, 2022 von Cape Canaveral Space Force Station

Loading…

Nächste Überflüge (nächste 24 Stunden)

TLE

AktuellSource: CelesTrak SupGP

Epoche: Sep 14, 2026, 22:16 UTC

1 54102C 22136BD  26257.92826389  .00496540  00000+0  18512-1 0  2577
2 54102  53.1611 203.1693 0001317  95.6231 275.0171 15.26651064    13

Verfolge STARLINK-5179 in Echtzeit mit AllMySat

Download on the App Store